Weather Roundup
Issued by NWS

Home | Current Version | Previous Version | Graphics & Text | Print | Product List | Glossary Off
Versions: 1 2 3 4 5 6 7 8 9 10 11 12 13 14 15 16 17 18 19 20 21 22 23 24 25 26 27 28 29 30 31 32 33 34 35 36 37 38 39 40 41 42 43 44 45 46 47 48 49 50

000
NZUS93 KARX 051859
HRRWXR

CURRENT HOURLY OBSERVATIONS ACROSS
MUCH OF THE UPPER MISSISSIPPI VALLEY
NATIONAL WEATHER SERVICE LA CROSSE WI
200 PM CDT SUN JUL 05 2015


...SOUTHEAST MINNESOTA...


CITY           SKY/WX    TMP DP  RH WIND       PRES   REMARKS
ROCHESTER      CLOUDY    80  66  62 S14       29.95F
ROCHESTER/MAYO FAIR      81  65  57 S12G21    29.94F
WINONA         CLOUDY    81  63  54 S7        29.94F
AUSTIN         CLOUDY    82  66  57 S14       29.94F
ALBERT LEA     PTSUNNY   82  66  57 S13       29.92F
DODGE CENTER   CLOUDY    81  68  65 S20       29.94S
PRESTON        CLOUDY    80  66  63 S16       29.97F
OWATONNA       PTSUNNY   82  66  57 S13G18    29.92S
FARIBAULT      PTSUNNY   84  70  61 S16       29.91S
$$

...ELSEWHERE IN MINNESOTA...


CITY           SKY/WX    TMP DP  RH WIND       PRES   REMARKS
MINNEAPOLIS    PTSUNNY   85  67  54 S13G21    29.89R
INTNL FALLS    CLOUDY    78  68  71 VRB6      29.76F
DULUTH         PTSUNNY   82  65  56 S18       29.86F
RED WING       CLOUDY    84  64  51 S6G16     29.91R
REDWOOD FALLS  MOSUNNY   88  65  46 S14G23    29.83S HX  90
MANKATO        PTSUNNY   82  68  61 S14G23    29.89R
WORTHINGTON    MOSUNNY   84  66  54 S18       29.85S
FAIRMONT       PTSUNNY   81  66  61 S13       29.88S
$$

...SOUTHWEST WISCONSIN...


CITY           SKY/WX    TMP DP  RH WIND       PRES   REMARKS
LA CROSSE      PTSUNNY   83  63  50 S16       29.95F
PRAIRIE DU CHI PTSUNNY   82  62  49 S10       29.99F
BOSCOBEL       PTSUNNY   84  65  52 S7        30.00F
LONE ROCK      NOT AVBL
PLATTEVILLE    PTSUNNY   80  64  58 S12       30.03F
FORT MC COY    MOSUNNY   84  58  41 S10       29.99F
VIROQUA        FAIR      80  61  52 S8G16     30.02S
WIS DELLS      MOSUNNY   81  61  50 S9        30.02F
$$

...ELSEWHERE IN WISCONSIN...


CITY           SKY/WX    TMP DP  RH WIND       PRES   REMARKS
MILWAUKEE      MOSUNNY   80  61  52 SE15      30.05F
MADISON        MOSUNNY   81  62  52 S13       30.02F
GREEN BAY      SUNNY     81  62  52 S13       30.02F
EAU CLAIRE     PTSUNNY   82  63  52 S14       29.93F
BLACK RVR FLS  FAIR      83  58  42 S9        29.96F
MEDFORD        MOSUNNY   78  61  55 SW18      29.99F
WAUSAU         SUNNY     81  59  47 S14       29.99F
WIS RAPIDS     SUNNY     82  59  45 SW14      30.02F
MARSHFIELD     MOSUNNY   81  61  50 S9G20     29.99F
RICE LAKE      PTSUNNY   80  62  54 S12G17    29.95S
$$

...NORTHEAST IOWA...


CITY           SKY/WX    TMP DP  RH WIND       PRES   REMARKS
DECORAH          N/A    N/A N/A N/A MISG        N/A
MASON CITY     CLOUDY    84  70  62 S15       29.94F
CHARLES CITY   CLOUDY    81  70  69 S14       29.97F
OELWEIN        PTSUNNY   79  66  65 S10       30.00F
$$

...ELSEWHERE IN IOWA...


CITY           SKY/WX    TMP DP  RH WIND       PRES   REMARKS
DES MOINES     CLOUDY    86  70  58 SE15      29.93F HX  90
IOWA CITY      PTSUNNY   82  68  62 S7        30.01F
FORT DODGE     PTSUNNY   82  70  65 S10G20    29.92F
$$

...NORTHERN ILLINOIS...


CITY           SKY/WX    TMP DP  RH WIND       PRES   REMARKS
CHICAGO-OHARE  MOSUNNY   82  59  45 CALM      30.05F
CHICAGO-MIDWAY MOSUNNY   84  60  44 S8        30.06F
MOLINE         MOSUNNY   82  66  58 S10       30.02F
ROCKFORD       MOSUNNY   82  64  54 SW9       30.06F
PEORIA         MOSUNNY   83  62  49 SE6       30.05F
$$

NOTE: "FAIR" INDICATES FEW OR NO CLOUDS BELOW 12,000 FEET WITH NO
SIGNIFICANT WEATHER AND/OR OBSTRUCTIONS TO VISIBILITY. WIND
SPEEDS ARE IN MILES-PER-HOUR.



USA.gov is the U.S. government's official web portal to all federal, state and local government web resources and services.